Tracking 35280 objects as of 7-Sep-2026
HD Live streaming from Space Station
objects crossing your sky now

COSMOS 57 DEB


COSMOS 57 DEB is no longer on orbit


NORAD ID: 1213
Int'l Code: 1965-012DQ
Launch date: February 22, 1965
Source: Commonwealth of Independent States (former USSR) (CIS)
Launch site: TYURATAM MISSILE AND SPACE COMPLEX (TTMTR)
Decay date: 1965-03-14

Note: This is SATELLITE DEBRIS
Your satellite tracking list
Your tracking list is empty




NASA's NSSDC Master Catalog

Two Line Element Set (TLE):
1 01213U 65012 DQ 65066.13999580  .00098473 +22138-4 +00000-0 0  9999
2 01213 065.0433 253.5363 0199041 060.3102 301.6818 15.98267436002058
Source of the keplerian elements: AFSPC